{"data":{"norad_id":44350,"epoch":"2026-05-24T23:57:15.084864Z","epoch_age_seconds":75170,"freshness":"FRESH","line1":"1 44350U 19036M   26144.99809126  .00002209  00000+0  16427-3 0  9991","line2":"2 44350  23.9978 250.8231 0000739 285.6101  74.4318 14.96389659380591","mean_motion":14.96389659,"eccentricity":7.39e-5,"inclination_deg":23.9978,"raan_deg":250.8231,"arg_perigee_deg":285.6101,"mean_anomaly_deg":74.4318,"bstar":0.00016427,"rev_number":38059,"period_min":96.231619307121,"perigee_km":577.5486551151,"apogee_km":578.57678143347,"semimajor_km":6956.1997182743,"source":"CELESTRAK","updated_at":"2026-05-25T13:37:55.970520Z"}}